User: anonymous   Login
Location: Unspecified
(0.0000°N, 0.0000°E)
Time: 00:46:39
(UTC+00:00)
Language:

STARLINK-6271 - Orbit

View from above orbital plane
View from above orbital plane
View from above satellite
View from above satellite

Ground track
Ground track

The orbit is defined by the following mean orbital elements,

1 56397U          26145.40512964 +.00000000 +00000-0 +14817-4 0 00007
2 56397  43.0019 114.0969 0000856 267.2090  92.8663 15.27575791    07
Epoch (UTC): 25 May 2026 09:43:23
Eccentricity: 0.0000856
inclination: 43.0019°
perigee height: 482 km
apogee height: 484 km
right ascension of ascending node: 114.0969°
argument of perigee: 267.2090°
revolutions per day: 15.27575791
mean anomaly at epoch: 92.8663°

The dashed part of the orbit path shows where the satellite is in the earth's shadow,  

DLR